TimeCST,TemperatureF,Dew PointF,Humidity,Sea Level PressureIn,VisibilityMPH,Wind Direction,Wind SpeedMPH,Gust SpeedMPH,PrecipitationIn,Events,Conditions,WindDirDegrees,DateUTC
12:53 AM,14.0,8.1,77,30.42,10.0,Calm,Calm,-,N/A,,Scattered Clouds,0,2013-01-18 06:53:00
1:53 AM,16.0,9.0,74,30.43,10.0,Calm,Calm,-,N/A,,Mostly Cloudy,0,2013-01-18 07:53:00
2:53 AM,17.1,9.0,71,30.42,10.0,ESE,3.5,-,N/A,,Overcast,110,2013-01-18 08:53:00
3:53 AM,17.1,9.0,71,30.39,10.0,SE,5.8,-,N/A,,Overcast,140,2013-01-18 09:53:00
4:53 AM,17.1,10.0,74,30.35,9.0,SSE,8.1,-,0.00,Snow,Light Snow,150,2013-01-18 10:53:00
5:53 AM,19.0,10.9,71,30.32,10.0,South,11.5,-,0.00,,Overcast,170,2013-01-18 11:53:00
6:53 AM,19.0,12.0,74,30.30,10.0,SSE,10.4,-,N/A,,Overcast,160,2013-01-18 12:53:00
7:53 AM,21.0,14.0,74,30.25,10.0,SSE,13.8,-,N/A,,Overcast,160,2013-01-18 13:53:00
8:53 AM,24.1,17.1,75,30.20,10.0,South,16.1,24.2,N/A,,Overcast,180,2013-01-18 14:53:00
9:53 AM,28.9,19.9,69,30.16,10.0,South,15.0,-,N/A,,Overcast,190,2013-01-18 15:53:00
10:53 AM,34.0,23.0,64,30.10,10.0,SSW,18.4,31.1,N/A,,Partly Cloudy,200,2013-01-18 16:53:00
11:53 AM,36.0,25.0,64,30.03,10.0,SSW,18.4,29.9,N/A,,Clear,200,2013-01-18 17:53:00
12:53 PM,37.9,26.1,62,29.96,10.0,South,18.4,25.3,N/A,,Clear,180,2013-01-18 18:53:00
1:53 PM,41.0,28.0,60,29.91,10.0,South,16.1,23.0,N/A,,Clear,190,2013-01-18 19:53:00
2:53 PM,42.1,28.9,60,29.90,10.0,SSW,15.0,21.9,N/A,,Clear,200,2013-01-18 20:53:00
3:53 PM,42.1,28.9,60,29.88,10.0,SSW,12.7,21.9,N/A,,Clear,200,2013-01-18 21:53:00
4:53 PM,41.0,30.0,65,29.88,10.0,SSW,9.2,20.7,N/A,,Clear,200,2013-01-18 22:53:00
5:53 PM,41.0,30.0,65,29.87,10.0,SSW,9.2,-,N/A,,Clear,210,2013-01-18 23:53:00
6:53 PM,39.9,30.9,70,29.87,10.0,SSW,5.8,-,N/A,,Clear,210,2013-01-19 00:53:00
7:53 PM,39.9,30.9,70,29.87,10.0,SSW,6.9,-,N/A,,Clear,210,2013-01-19 01:53:00
8:53 PM,41.0,30.9,67,29.85,10.0,SW,11.5,17.3,N/A,,Clear,220,2013-01-19 02:53:00
9:53 PM,41.0,30.9,67,29.84,10.0,SW,8.1,18.4,N/A,,Clear,230,2013-01-19 03:53:00
10:53 PM,39.9,30.9,70,29.83,10.0,SW,8.1,-,N/A,,Clear,230,2013-01-19 04:53:00
11:53 PM,39.0,30.9,73,29.84,10.0,SW,5.8,-,N/A,,Clear,230,2013-01-19 05:53:00